World > North America > United States > California > Twentynine Palms   City of Twentynine Palms, CA

Twentynine Palms, CA Hourly Weather Updates

Feedback E-mail the Weather

Quick Clicks

Twentynine Palms, CA Weather Maps

°F °C°F °C
Twentynine Palms Weather Map
UTC Time: 4/20/2024, 22:04
Your Time:

Twentynine Palms, CA Regional Weather

Expires:202404202200;;092850
ASUS45 KPSR 202110
RWRAZ 

ARIZONA HOURLY REGIONAL WEATHER ROUNDUP
NATIONAL WEATHER SERVICE PHOENIX AZ
200 PM MST SAT APR 20 2024

NOTE: FAIR INDICATES FEW OR NO CLOUDS BELOW 12,000 FEET WITH NO
SIGNIFICANT WEATHER AND/OR OBSTRUCTIONS TO VISIBILITY.


CAZ041-043-047-048-061-525>527-560>570-202200-
SOUTHERN CALIFORNIA
  
CITY           SKY/WX    TMP DP  RH WIND       PRES   REMARKS
DOWNTOWN L.A.  SUNNY     70  53  54 MISG      30.00F TC  21           
L.A. AIRPORT   MOSUNNY   64  53  67 SW13      30.02F TC  18           
SAN DIEGO      MOSUNNY   67  52  58 W14       30.03F TC  19           
BURBANK        SUNNY     68  52  56 E6        30.00F TC  20           
ONTARIO        MOSUNNY   66  48  52 W6        30.00F TC  19           
RIVERSIDE      SUNNY     67  52  58 SW5       30.00F TC  19           
PALM SPRINGS   SUNNY     92  40  16 CALM      29.89F TC  33           
EL CENTRO NAS  SUNNY     91  46  21 VRB3      29.87F TC  33           
IMPERIAL       SUNNY     90  48  23 VRB5      29.86F TC  32           
BLYTHE         SUNNY     92  34  13 S6        29.87F TC  33           
NEEDLES        SUNNY     95  34  11 E7        29.87F TC  35           
$$


SKY/WX - Weather  TMP - Temperature  DP - Dew Point  RH - Humidity
WIND - Wind Direction/Speed PRES - Barometric Pressure VSB - Visibility
WCI - Wind Chill Index E13G22 Wind - East Wind 13 mph/Gusts of 22 mph

Trending Headlines

Trending Entertainment Headlines

Twentynine Palms Radar Loop

Use the map search tool if you want to place a location marker on the radar map...

Twentynine Palms Quick Facts

National Two Day Weather Forecast


E-mail the Twentynine Palms Weather Forecast

Voice your opinion or tell us about page issues...